NOAA 16 DEB

Satellite information

Favourite Embed

Satellite Type and Status

DEBRISIN ORBIT

Key statistics

Satellite NOAA 16 DEB at a glance.

Uptime

9214

Days in orbit

Revolutions

≈ 14.7

Per day

Orbit

SSO

Sun Synchronous Orbit

Inclination

99.0

Latest

Satellite identification and parameters

Extended collection of information and parameters for NOAA 16 DEB.

Object identification

Identified? True

Debris? True

Object name: NOAA 16 DEB

International designator: 2000-055GS

Object number (NORAD): 41290

Object ID (CCSDS): 41290

Country: UNITED STATES OF AMERICA (US)

Current information (Y/N): Y

RCS size: SMALL

Orbital parameters

Period: 98.266 minutes

Inclination: 99.003 deg

SMA: 7053.913 km

Apoapsis: 687.909 km

Periapsis: 663.647 km

RAAN: 209.9432 deg

Eccentricy: 0.0017198

Argument of periapsis: 323.314 deg

Mean anomaly: 36.6882 deg

Mean motion: 14.65404772 rev/day

Mean motion (dot): 0.0003218 rev/day2

B* drag term: 0.0059218 1/REarth

Two-line elements (TLE)

Creation date: Dec. 12, 2025, 7:16 a.m.

Reference frame: TEME

Reference center: EARTH

Epoch: Dec. 11, 2025, 8:37 p.m. UTC

TLE line 0: 0 NOAA 16 DEB

TLE line 1: 1 41290U 00055GS 25345.85933248 .00032180 00000-0 59218-2 0 9998

TLE line 2: 2 41290 99.0030 209.9432 0017198 323.3140 36.6882 14.65404772519233

Live tracking on map

Real-time ground track for satellite NOAA 16 DEB.

In-orbit conjunctions

A list of the most updated potential collisions computed for object NOAA 16 DEB.

Target Orbit TCA Probability of collision Miss distance Type
CZ-6A DEB SSO 2025-01-24 10:03:18 0.0001554349 79.0 (m) DEBRIS
IRIDIUM 33 DEB LEO 2024-09-02 05:49:49 0.0001128163 355.0 (m) DEBRIS
SL-8 R/B LEO 2024-08-16 02:59:42 0.0001577523 889.0 (m) ROCKET BODY

Associated space launch

The NOAA K, L and M POES satellites begin the fifth generation of improved environmental monitoring in support of NOAA missions. The instrument payload has significant improvements and additions/deletions. The instrument changes have effected the spacecraft subsystems and data formats.

NOAA 16 DEB was lifted into orbit during the mission ‘Titan II SLV | NOAA 16’, on board a Titan II SLV space rocket.

The launch took place on Sept. 21, 2000, 10:22 a.m. from Space Launch Complex 4W.

For more information about the launch, click the button.

Launch to space Titan II SLV | NOAA 16
Titan II SLV | NOAA 16

Agency: N/A

Status: Launch Successful

Launch date: Sept. 21, 2000, 10:22 a.m. UTC

Rocket: Titan II SLV

Launch pad: Space Launch Complex 4W

Location: Vandenberg SFB, CA, USA

...

Latest news about this satellite

There are no fresh news available about this satellite. Check back as we update our databases every day.


Newsletter sign-up

Weekly statistics, charts and insights to help you stay on top of the space industry.